Volver al catálogo

STARLINK-34701

ActivoComunicacionesSSO
NORAD 64953·PAYLOAD·🇺🇸 United States

Lanzado Jul 26, 2025 desde Vandenberg Space Force Base

Loading…

Próximos Pases (próximas 24 horas)

TLE

ActualizadoSource: CelesTrak SupGP

Época: Sep 15, 2026, 03:25 UTC

1 64953C 25158X   26258.14284722 -.00008272  00000+0 -25675-3 0  2587
2 64953  97.2846 116.5113 0001517  92.0592 284.9341 15.33448131    19

Sigue STARLINK-34701 en tiempo real con AllMySat

Download on the App Store